sat.trackr.live / text

‹ back to catalog

STARLINK-35419

NORAD 66559 · 2025-268C

PAYLOAD ACTIVE UNKNOWN

§ Identity

Operator
Country
US
Launch date
2025-11-21
Launch site
AFETR
Launch vehicle
Mass (kg)
RCS (m²)

Purposes: comms

External: N2YO · Heavens-Above · Gunter

§ Orbital elements

Epoch: 2026-09-20T21:36:00.028512Z

Period
94.27 min
Inclination
43.0034°
Eccentricity
0.0001620
Mean motion
15.27581550 rev/d
Perigee alt
481.9 km
Apogee alt
484.2 km
Semi-major
6,861.2 km
B*
3.8659e-4
RAAN
324.7079°
Arg perigee
277.7371°
Mean anomaly
82.3297°
Rev number
4,781

§ Raw data

STARLINK-354191 66559U 25268C   26263.90000033  .00010391  00000+0  38659-3 0  99952 66559  43.0034 324.7079 0001620 277.7371  82.3297 15.27581550 47812

JSON: /api/v1/satellites/66559 · /tle

For live sub-satellite position, see the globe view (requires WebGL).

§ Visibility from observer

Set your observer location to see the next 7 days of passes ≥ 10°. The values pass through the URL so the page stays shareable.

No JS? Fill the form by hand. The geolocation button needs JavaScript.